Погода в Шпиндлерув Млыне

Чехия     50°43′31″N   15°36′25″E
темп.,
°C
ветер,
м/с
пор.,
м/с
влажн.,
%
обл.,
%
осадки,
мм/ч
давл.,
гПа
погр.,
м
12 апреля, пн
пн1223:00+4ююв369725 0.0 1015133
02:00+2ю239764 0.0 101650
05:00+1с229975 0.1 101747
08:00+2с3498100 0.4 1018346
11:00−1с4697100 2.5 1021338
14:00−2с3697100 4.5 1023355
17:000с3792100 2.4 1024606
20:00−1ссз2798100 3.2 1026556
13 апреля, вт
вт1323:00−2ссз1396100 0.3 102898
02:00−2ссз1292100 0.3 102844
05:00−2с2595100 0.0 1028246
08:00−1с3989100 0.0 1028620
11:00+1с3680100 0.1 10291029
14:00+2ссз466998 0.2 10281548
17:00+2ссз4769100 0.1 10271696
20:00−1ссз3780100 0.1 1028322
14 апреля, ср
ср1423:00−2ссз288599 0.1 1028265
02:00−2ссз31090100 0.2 1028545
05:00−3с31095100 0.1 1028591
08:00−2с4990100 0.1 1028778
11:000ссз4774100 0.1 10281188
14:00+1ссз5767100 0.2 10261500
17:00+2ссз4769100 0.3 10251427
20:00−1с2686100 0.4 1026280
15 апреля, чт
чт1523:00−2ссз2787100 0.1 1026379
02:00−3ссз2496100 0.2 1026118
05:00−3ссз2697100 0.1 1025306
08:00−1с3890100 1.1 1025621
11:00+1с3571100 0.1 10251115
14:00+1с4570100 0.2 10241252
17:00+1с368387 0.5 1024895
20:00−2с259794 1.1 1024402
16 апреля, пт
пт1623:00−3с2398100 0.3 102492
02:00−3ссз239887 0.5 1023151
05:00−3зсз1396100 0.1 1023198
08:00−2зсз2386100 0.2 1023493
11:00+1зсз127697 0.1 1022835
14:00+2зсз1178100 0.2 1022671
17:00+2ссз1187100 0.3 1022418
20:000св129890 0.6 1023124